GW2492 Weather Reports


time (UTC)temp
C
wind
direction
speed
KPH
gust
KPH
rain 1hr
cm
rain 24hr
cm
rain mn
cm
humidity
%
barometer
mb
20260906224605 33 147 14.5 27.4 0.00 0.00 0.00 47 1013.0
20260906223100 34 178 12.9 27.4 0.00 0.00 0.00 46 1013.1
20260906221604 34 150 9.7 25.7 0.00 0.00 0.00 45 1013.3
20260906220057 34 207 4.8 19.3 0.00 0.00 0.00 45 1013.3
20260906214555 33 126 11.3 20.9 0.00 0.00 0.00 45 1013.3
20260906213050 33 124 6.4 20.9 0.00 0.00 0.00 47 1013.5
20260906211553 33 147 12.9 24.1 0.00 0.00 0.00 47 1013.7
20260906210052 32 155 9.7 19.3 0.00 0.00 0.00 47 1014.0
20260906204547 32 97 14.5 24.1 0.00 0.00 0.00 48 1014.3
20260906203056 32 112 16.1 24.1 0.00 0.00 0.00 49 1014.3
20260906201609 32 109 22.5 32.2 0.00 0.00 0.00 50 1014.8
20260906200049 32 122 17.7 29.0 0.00 0.00 0.00 50 1014.9
20260906194554 32 95 12.9 27.4 0.00 0.00 0.00 52 1014.9
20260906193057 32 105 12.9 20.9 0.00 0.00 0.00 51 1015.0
20260906191557 33 41 9.7 24.1 0.00 0.00 0.00 50 1015.0
20260906190053 32 79 9.7 19.3 0.00 0.00 0.00 50 1015.3
20260906184557 32 93 8.0 19.3 0.00 0.00 0.00 53 1015.4
20260906183115 32 56 11.3 24.1 0.00 0.00 0.00 54 1015.8
20260906181600 32 106 8.0 19.3 0.00 0.00 0.00 53 1015.8
20260906180113 32 53 1.6 9.7 0.00 0.00 0.00 55 1016.1
20260906174546 31 211 8.0 14.5 0.00 0.00 0.00 58 1016.3
20260906173056 31 202 1.6 8.0 0.00 0.00 0.00 59 1016.6
20260906171555 31 80 8.0 20.9 0.00 0.00 0.00 56 1016.8
20260906170046 31 101 9.7 20.9 0.00 0.00 0.00 55 1016.8
20260906164554 31 154 4.8 12.9 0.00 0.00 0.00 58 1017.0
20260906163101 31 360 0.0 8.0 0.00 0.00 0.00 61 1016.9
20260906161601 30 0 1.6 6.4 0.00 0.00 0.00 63 1017.0
20260906160052 30 0 3.2 8.0 0.00 0.00 0.00 64 1017.1
20260906154547 29 15 4.8 9.7 0.00 0.00 0.00 66 1017.0
20260906153047 28 9 3.2 8.0 0.00 0.00 0.00 68 1016.8
20260906151551 28 0 1.6 6.4 0.00 0.00 0.00 70 1016.7
20260906150054 28 0 1.6 4.8 0.00 0.00 0.00 70 1016.4
20260906144554 27 344 1.6 6.4 0.00 0.00 0.00 72 1016.3
20260906143045 27 0 0.0 3.2 0.00 0.00 0.00 73 1016.4
20260906141556 26 0 0.0 3.2 0.00 0.00 0.00 75 1016.2
20260906140055 25 0 0.0 3.2 0.00 0.00 0.00 77 1016.2
20260906134556 25 0 0.0 0.0 0.00 0.00 0.00 77 1016.0
20260906133107 25 0 0.0 0.0 0.00 0.00 0.00 78 1016.0
20260906131555 23 0 0.0 0.0 0.00 0.00 0.00 81 1015.8
20260906130105 23 0 0.0 3.2 0.00 0.00 0.00 83 1015.6
20260906124550 22 9 1.6 3.2 0.00 0.00 0.00 85 1015.4
20260906123048 22 9 1.6 3.2 0.00 0.00 0.00 85 1015.3
20260906121608 22 9 1.6 4.8 0.00 0.00 0.00 84 1015.2
20260906120057 22 9 4.8 6.4 0.00 0.00 0.00 83 1015.0
20260906114557 22 10 1.6 6.4 0.00 0.00 0.00 82 1014.9
20260906113054 22 344 0.0 3.2 0.00 0.00 0.00 81 1014.7
20260906111555 23 344 0.0 4.8 0.00 0.00 0.00 80 1014.6
20260906110057 23 0 0.0 4.8 0.00 0.00 0.00 78 1014.5
20260906104551 23 229 1.6 6.4 0.00 0.00 0.00 78 1014.4
20260906103048 23 275 3.2 6.4 0.00 0.00 0.00 78 1014.3
20260906101547 24 248 6.4 12.9 0.00 0.00 0.00 77 1014.3
20260906100055 24 213 8.0 11.3 0.00 0.00 0.00 76 1014.2
20260906094551 25 191 9.7 14.5 0.00 0.00 0.00 75 1014.2
20260906093047 25 194 11.3 16.1 0.00 0.00 0.00 74 1014.1
20260906091553 25 193 11.3 16.1 0.00 0.00 0.00 74 1013.9
20260906090106 24 178 8.0 14.5 0.00 0.00 0.00 76 1013.9
20260906084549 24 167 6.4 11.3 0.00 0.00 0.00 77 1014.0
20260906083056 23 159 3.2 6.4 0.00 0.00 0.00 77 1014.1
20260906081611 24 159 0.0 6.4 0.00 0.00 0.00 77 1014.0
20260906080057 24 0 0.0 0.0 0.00 0.00 0.00 76 1014.1
20260906074610 25 0 0.0 0.0 0.00 0.00 0.00 76 1013.9
20260906073049 25 0 0.0 0.0 0.00 0.00 0.00 75 1014.1
20260906071600 25 0 0.0 0.0 0.00 0.00 0.00 75 1014.3
20260906070058 25 0 0.0 0.0 0.00 0.00 0.00 74 1014.4
20260906064554 25 0 0.0 0.0 0.00 0.00 0.00 73 1014.5
20260906063050 25 0 0.0 0.0 0.00 0.00 0.00 72 1014.6
20260906061609 26 0 0.0 1.6 0.00 0.00 0.00 71 1014.7
20260906060058 26 159 1.6 6.4 0.00 0.00 0.00 70 1014.8
20260906054558 26 159 3.2 8.0 0.00 0.00 0.00 69 1014.9
20260906053049 26 159 3.2 8.0 0.00 0.00 0.00 68 1015.0
20260906051601 26 159 1.6 6.4 0.00 0.00 0.00 67 1015.0
20260906050055 26 159 3.2 8.0 0.00 0.00 0.00 67 1015.2
20260906044552 27 160 6.4 11.3 0.00 0.00 0.00 66 1015.1
20260906043048 27 149 6.4 11.3 0.00 0.00 0.00 63 1015.1
20260906041547 28 150 6.4 12.9 0.00 0.00 0.00 63 1015.0
20260906040058 28 148 6.4 12.9 0.00 0.00 0.00 62 1015.0
20260906034550 28 153 8.0 16.1 0.00 0.00 0.00 62 1014.9
20260906033051 28 152 11.3 16.1 0.00 0.00 0.00 61 1014.8
20260906031602 29 140 9.7 16.1 0.00 0.00 0.00 60 1014.5
20260906030056 29 150 8.0 14.5 0.00 0.00 0.00 59 1014.1
20260906024550 30 157 9.7 14.5 0.00 0.00 0.00 59 1013.7
20260906023047 30 153 9.7 17.7 0.00 0.00 0.00 58 1013.5
20260906021556 31 144 16.1 22.5 0.00 0.00 0.00 56 1013.2
20260906014547 31 134 8.0 14.5 0.00 0.00 0.00 50 1012.8
20260906013100 32 138 8.0 14.5 0.00 0.00 0.00 49 1012.7
20260906011558 32 115 6.4 16.1 0.00 0.00 0.00 49 1012.5
20260906010055 33 105 8.0 19.3 0.00 0.00 0.00 48 1012.3
20260906004556 33 100 8.0 24.1 0.00 0.00 0.00 47 1012.2
20260906003056 34 92 12.9 24.1 0.00 0.00 0.00 46 1012.3
20260906001555 34 87 16.1 25.7 0.00 0.00 0.00 45 1012.4
20260906000051 35 76 8.0 22.5 0.00 0.00 0.00 46 1012.3
20260905234549 35 55 9.7 17.7 0.00 0.00 0.00 46 1012.0
20260905233057 35 46 9.7 19.3 0.00 0.00 0.00 46 1012.0
20260905231551 35 84 8.0 27.4 0.00 0.00 0.00 45 1011.7
20260905230054 35 90 11.3 19.3 0.00 0.00 0.00 44 1011.7